Location: Lanoux
(43.1180°N, 1.4255°E)
Time: 18:37:55
(UTC+00:00)

Cosmos 1898 Rocket - Visible Passes

Search period start: 07 March 2026 00:00
Search period end: 17 March 2026 00:00
Orbit: 749 x 779 km, 74.0° (Epoch: 7 March)

Date Brightness Start Highest point End Pass type
(mag) Time Alt. Az. Time Alt. Az. Time Alt. Az.
7 Mar 5.9 02:47:58 16° N 02:47:58 16° N 02:49:06 10° NNE visible
8 Mar 6.3 02:10:25 13° NNE 02:10:25 13° NNE 02:10:53 10° NNE visible
8 Mar 5.8 03:50:35 12° NNW 03:50:35 12° NNW 03:51:25 10° NNW visible
9 Mar 5.9 03:13:00 14° N 03:13:00 14° N 03:13:56 10° N visible
10 Mar 6.1 02:35:23 13° N 02:35:23 13° N 02:36:04 10° N visible
11 Mar 6.4 01:57:46 11° NNE 01:57:46 11° NNE 01:57:59 10° NNE visible
12 Mar 6.1 03:00:17 11° NNW 03:00:17 11° NNW 03:00:29 10° NNW visible
13 Mar 6.3 02:22:36 11° N 02:22:36 11° N 02:22:53 10° N visible
14 Mar 6.5 01:44:55 10° N 01:44:55 10° N 01:44:58 10° N visible
